Regional Weather Roundup
Issued by NWS Jackson, KY

Home | Current Version | Previous Version | Text Only | Print | Product List | Glossary On
Versions: 1 2 3 4 5 6 7 8 9 10 11 12 13 14 15 16 17 18 19 20 21 22 23 24 25 26 27 28 29 30 31 32 33 34 35 36 37 38 39 40 41 42 43 44 45 46 47 48 49 50
000
ASUS43 KJKL 010210
RWRJKL

EAST KENTUCKY HOURLY WEATHER ROUNDUP
NATIONAL WEATHER SERVICE JACKSON KY
1000 PM EDT SAT APR 30 2016

NOTE: "FAIR" INDICATES FEW OR NO CLOUDS BELOW 12,000 FEET WITH
NO SIGNIFICANT WEATHER AND/OR OBSTRUCTIONS TO VISIBILITY.

* THESE REPORTS ARE NOT UNDER NWS QUALITY CONTROL AND MAY NOT
  REPORT WEATHER SUCH AS PRECIPITATION AND FOG.

KYZ079-080-083-085-087-088-110-112-115-119-120-010300
...EASTERN KENTUCKY...

CITY           SKY/WX    TMP DP  RH WIND       PRES   REMARKS
JACKSON        RAIN      61  59  93 CALM      30.00R VSB 3/4
LONDON         HVY RAIN  62  60  93 E5        29.99R VSB 1
SOMERSET*      CLOUDY    61  61 100 CALM      29.98R
MONTICELLO*    CLOUDY    65  64  97 E6        29.97S
WILLIAMSBURG*  CLOUDY    59  59 100 SE8       29.98S
MIDDLESBORO*   RAIN      62  62 100 W3        30.02S
HARLAN APT*    CLOUDY    61  57  88 CALM      30.02S
HAZARD APT*    HVY RAIN  61  61 100 NW3       30.01R
BLACK MTN*       N/A     55  55 100 SE1         N/A
PIKE CO APT*   LGT RAIN  62  60  92 S8        29.98S
BIG SANDY APT* CLOUDY    63  60  91 S6        29.98R
MOREHEAD APT*  LGT RAIN  61  59  94 CALM      29.99R
$$

KYZ035-036-041-042-044-050-067-078-099-010300
...CENTRAL KENTUCKY...

CITY           SKY/WX    TMP DP  RH WIND       PRES   REMARKS
MT STERLING*   RAIN      61  61 100 CALM      29.99R
FLEMING/MASON* RAIN      58  58  99 SE7       29.96F
DANVILLE*      DRIZZLE   61  61 100 SE3       29.95F
RICHMOND*      CLOUDY    61  59  94 CALM      29.96S
LEXINGTON      LGT RAIN  62  60  93 S10       29.94S
FRANKFORT      LGT RAIN  63  60  90 SE6       29.91S
LOUISVILLE     CLOUDY    65  63  93 S9        29.88F
LEBANON*       LGT RAIN  64  63  94 SE7       29.93S
BOWLING GREEN  LGT RAIN  68  66  93 CALM      29.90R
$$

KYZ091>093-OHZ055-061-077-WVZ005-015-034-035-042-010300
...SOUTHERN OHIO/WEST VIRGINIA...

CITY           SKY/WX    TMP DP  RH WIND       PRES   REMARKS
COVINGTON      LGT RAIN  60  60 100 S10       29.91S
COLUMBUS       LGT RAIN  55  55 100 SE7       29.93F FOG
DAYTON         CLOUDY    56  55  97 SE14      29.90F
WILMINGTON     LGT RAIN  56  55  97 S13       29.92F FOG
HUNTINGTON     CLOUDY    61  59  93 CALM      29.95R
CHARLESTON     CLOUDY    63  59  87 SE6       29.96S
PINEVILLE*     LGT RAIN  60  55  83 MISG      30.09S
BECKLEY        MOCLDY    56  53  90 SE15G28   30.07R
$$

VAZ002-007-008-TNZ017-027-036-066-071-010300
...SOUTHWEST VIRGINIA/EAST TENNESSEE...

CITY           SKY/WX    TMP DP  RH WIND       PRES   REMARKS
WISE*          RAIN      59  59 100 S8        30.07S
BRISTOL        LGT RAIN  62  59  90 CALM      30.03R
MORRISTOWN*    CLOUDY    63  63 100 SE6       30.01S
SEVIERVILLE*   MOCLDY    63  61  94 CALM      30.00R
KNOXVILLE      LGT RAIN  64  62  93 NE9       29.98S
OAK RIDGE      RAIN      64  62  93 VRB5      29.99F FOG
CROSSVILLE     CLOUDY    65  60  84 E5        29.98R
NASHVILLE      CLOUDY    68  65  90 S5        29.89R
$$

...KEY TO REMARKS...
VSB - VISIBILITY IN MILES
WCI - WIND CHILL INDEX
HX  - HEAT INDEX

$$



USA.gov is the U.S. government's official web portal to all federal, state and local government web resources and services.